[[{"header":{"parameterUnit":"m.s-1","parameterCategory":2,"la1":30.2991,"la2":30.254,"lo1":-89.0895,"lo2":-89.0444,"dy":0.0017,"dx":0.0017,"nx":28,"ny":28,"refTime":"2023-08-04T09:00:00:Z","depth":"0","parameterNumber":2,"parameterNumberName":"U-component_of_CURRENTS"},"data":[0,0,0,0,0,0,0,0,0,0,0,0,0,0,0,0,0,0,0,0,0,0,0,0,0,0,0,0,0,0,0,0,0,0,0,0,0,0,0,0,0,0,0,0,0,0,0,0,0,0,0,0,0,0,0,0,0,0,0.3394,0.3395,0,0.3484,0.3484,0.3485,0.3552,0.3553,0.3554,0.3555,0.3522,0.352,0.3518,0,0,0,0,0,0,0,0,0,0,0,0,0,0.3363,0.3363,0.3394,0.3396,0.3397,0.3483,0.3484,0.3485,0.3552,0.3553,0.3555,0.3556,0.3523,0.352,0.3518,0,0,0,0,0,0,0,0,0,0,0,0,0,0.3402,0.3362,0.3394,0.3445,0.3451,0.3483,0.3484,0.3485,0.3552,0.3553,0.3555,0.3557,0.3523,0.3521,0.3518,0.3466,0,0,0.3509,0.3508,0,0,0,0,0,0,0,0,0.3399,0.3402,0.3436,0.3442,0.3449,0.3513,0.3462,0.3474,0.3551,0.3508,0.3556,0.3557,0.351,0.3508,0.3515,0.3464,0.3463,0.3509,0.3507,0.3505,0.3505,0,0,0,0,0,0,0,0.3396,0.3399,0.3424,0.3438,0.3445,0.3493,0.3498,0.3465,0.3492,0.3512,0.3518,0.3536,0.3512,0.3518,0.3515,0.3463,0.3509,0.3506,0.3504,0.3503,0.3513,0.3515,0,0,0,0,0,0,0.339,0.3396,0.3421,0.3427,0.3434,0.3492,0.3498,0.3486,0.3495,0.3501,0.3535,0.3539,0.3522,0.3518,0.3514,0.3536,0.3506,0.3503,0.3501,0.3511,0.3514,0.3516,0,0,0,0,0,0,0.3388,0.339,0.3418,0.342,0.3428,0.349,0.3477,0.3487,0.3518,0.3515,0.3517,0.3558,0.3523,0.3518,0.3507,0.3532,0.3501,0.3499,0.3509,0.3512,0.3515,0.3526,0,0,0,0,0,0,0.3386,0.3388,0.3379,0.3418,0.3427,0.3452,0.3476,0.3488,0.3528,0.3535,0.3535,0.3533,0.3524,0.3511,0.3504,0.3527,0.3497,0.3506,0.351,0.3514,0.3523,0.3529,0.3534,0,0,0,0,0,0.3384,0.339,0.3377,0.3381,0.3411,0.3453,0.3462,0.351,0.3527,0.3542,0.3544,0.3534,0.3532,0.3509,0.35,0.3523,0.3505,0.3509,0.3514,0.352,0.3527,0.3534,0,0,0,0,0,0,0.3356,0.3398,0.3386,0.3395,0.342,0.3467,0.348,0.3515,0.3529,0.3521,0.3528,0.3525,0.3549,0.3528,0.3503,0.3547,0.3529,0.3532,0.3537,0.3544,0.3549,0.3543,0.3494,0,0,0,0,0,0.3342,0.3372,0.3391,0.3399,0.3394,0.343,0.3454,0.3481,0.3503,0.3513,0.3528,0.3537,0.3556,0.3541,0.3558,0.3535,0.3557,0.356,0.3565,0.3569,0.3564,0.3626,0.3636,0.3531,0.3531,0.3531,0,0,0.3332,0.3363,0.3375,0.3399,0.3403,0.342,0.3447,0.3473,0.3508,0.3498,0.3538,0.3558,0.3564,0.3578,0.3584,0.3556,0.3615,0.3575,0.3578,0.3571,0.3632,0.3642,0.365,0.3534,0.3533,0.3533,0,0,0.334,0.3336,0.3352,0.3365,0.3387,0.342,0.343,0.347,0.3498,0.3524,0.3555,0.3584,0.3592,0.3613,0.362,0.3657,0.3664,0.3673,0.3658,0.3718,0.3727,0.3734,0.3786,0.3798,0.3648,0.3648,0.3648,0,0.3299,0.333,0.3364,0.3368,0.3378,0.342,0.3418,0.3459,0.3511,0.3513,0.354,0.3602,0.3616,0.3636,0.3668,0.3668,0.3697,0.3623,0.3723,0.3731,0.3739,0.3789,0.3803,0.3649,0.3649,0.3649,0.3649,0,0.3329,0.3326,0.3329,0.3355,0.3378,0.3382,0.3425,0.3452,0.3496,0.3535,0.358,0.3617,0.3648,0.3676,0.3677,0.3738,0.3742,0.3743,0.3697,0.3749,0.38,0.3814,0.3651,0.365,0.365,0.365,0,0,0.3243,0.3328,0.3317,0.3314,0.3357,0.3376,0.3411,0.3444,0.3462,0.3529,0.3565,0.3628,0.3654,0.3668,0.3693,0.3737,0.3834,0.3753,0.3756,0.3788,0.3965,0.3746,0.374,0.3847,0.3849,0.3851,0.3982,0,0.3215,0.3259,0.3307,0.3314,0.3311,0.334,0.3374,0.3413,0.3465,0.3519,0.3566,0.3628,0.3651,0.3675,0.3727,0.382,0.3868,0.3798,0.3923,0.3926,0.3712,0.3747,0.354,0.3618,0.3995,0.3997,0.3999,0,0.3189,0.323,0.3253,0.3277,0.3267,0.3289,0.3317,0.3356,0.3424,0.3458,0.3513,0.3581,0.367,0.3698,0.3851,0.3804,0.3886,0.3951,0.3958,0.3752,0.373,0.3628,0.3628,0.3549,0.4019,0.4017,0.4016,0,0.3141,0.3163,0.32,0.3205,0.3258,0.3246,0.3273,0.3322,0.333,0.3438,0.3461,0.3578,0.3641,0.377,0.3889,0.3894,0.4051,0.4077,0.3956,0.3943,0.3787,0.3752,0.3703,0.4191,0.4191,0.4191,0.419,0,0.3099,0.31,0.3174,0.3184,0.3175,0.3211,0.3199,0.3243,0.3286,0.3293,0.343,0.3461,0.3665,0.3766,0.3894,0.3932,0.4056,0.3952,0.3953,0.3783,0.3748,0.3684,0.3706,0.4195,0.4194,0.4193,0.4193,0,0.3055,0.3105,0.3124,0.3166,0.3158,0.3159,0.3139,0.3132,0.319,0.3213,0.325,0.3392,0.3534,0.3697,0.3907,0.389,0.3861,0.3979,0.3745,0.3711,0.3459,0.349,0.3249,0.3202,0.3872,0.3867,0.3863,0,0.3066,0.3078,0.3113,0.3102,0.3114,0.3097,0.3068,0.3091,0.3081,0.3148,0.3156,0.3296,0.3349,0.353,0.3591,0.3725,0.3723,0.3562,0.351,0.3389,0.3432,0.3271,0.3244,0.3353,0.3345,0.3339,0.3334,0,0.3063,0.3073,0.3108,0.3067,0.3034,0.2987,0.2951,0.292,0.2943,0.2948,0.2966,0.3011,0.3145,0.3148,0.3255,0.3323,0.3327,0.3423,0.339,0.3067,0.2805,0.2778,0.3338,0.3276,0.3282,0.3286,0.3289,0.3292,0.3059,0.3062,0.3064,0.3013,0.2959,0.2849,0.2765,0.2732,0.2665,0.2606,0.2734,0.2692,0.2771,0.2878,0.2923,0.2819,0.2912,0.2761,0.2835,0.2699,0.2532,0.2914,0.2771,0.2774,0.2776,0.2778,0.278,0,0.2985,0.2978,0.2978,0.2874,0.2752,0.2747,0.2645,0.2533,0.2401,0.238,0.2345,0.2302,0.2269,0.2376,0.2335,0.225,0.2185,0.2237,0.2054,0.2092,0.2525,0.2376,0.2023,0.2024,0.2024,0.2024,0.2024,0.2024,0.2931,0.2886,0.2876,0.2659,0.2578,0.2352,0.2268,0.2148,0.2078,0.1903,0.1809,0.1835,0.1958,0.1962,0.1904,0.1891,0.1841,0.1629,0.178,0.2181,0.2237,0.2291,0.2152,0.1759,0.1759,0.1178,0.1174,0.1171]},{"header":{"parameterUnit":"m.s-1","parameterCategory":2,"la1":30.2991,"la2":30.254,"lo1":-89.0895,"lo2":-89.0444,"dy":0.0017,"dx":0.0017,"nx":28,"ny":28,"refTime":"2023-08-04T09:00:00:Z","depth":"0","parameterNumber":3,"parameterNumberName":"V-component_of_CURRENTS"},"data":[0,0,0,0,0,0,0,0,0,0,0,0,0,0,0,0,0,0,0,0,0,0,0,0,0,0,0,0,0,0,0,0,0,0,0,0,0,0,0,0,0,0,0,0,0,0,0,0,0,0,0,0,0,0,0,0,0,0,0.0762,0.0762,0,0.0767,0.0767,0.0767,0.0733,0.0732,0.0731,0.0731,0.0712,0.0712,0.0713,0,0,0,0,0,0,0,0,0,0,0,0,0,0.0833,0.0831,0.0762,0.0762,0.0762,0.0767,0.0767,0.0767,0.0734,0.0732,0.0731,0.073,0.0712,0.0712,0.0713,0,0,0,0,0,0,0,0,0,0,0,0,0,0.0816,0.083,0.0762,0.0746,0.0744,0.0767,0.0767,0.0767,0.0734,0.0732,0.0731,0.073,0.0712,0.0712,0.0713,0.0745,0,0,0.0715,0.0715,0,0,0,0,0,0,0,0,0.0817,0.0813,0.0748,0.0747,0.0745,0.0748,0.0786,0.0759,0.0734,0.0738,0.0731,0.0729,0.0723,0.0723,0.0727,0.0744,0.0743,0.0715,0.0715,0.0715,0.0716,0,0,0,0,0,0,0,0.0818,0.0814,0.0764,0.0748,0.0747,0.0777,0.0772,0.0781,0.0738,0.0737,0.0735,0.0736,0.0722,0.0727,0.0726,0.0743,0.0715,0.0715,0.0716,0.0716,0.0778,0.078,0,0,0,0,0,0,0.0813,0.0814,0.0763,0.0764,0.0779,0.0776,0.0771,0.0749,0.0738,0.0735,0.0737,0.0735,0.0726,0.0726,0.0725,0.0785,0.0715,0.0716,0.0716,0.0777,0.0779,0.078,0,0,0,0,0,0,0.0814,0.0808,0.0763,0.0791,0.0787,0.0775,0.0752,0.075,0.0761,0.0739,0.0735,0.0751,0.0725,0.0725,0.0747,0.0783,0.0716,0.0717,0.0776,0.0778,0.0779,0.0891,0,0,0,0,0,0,0.0816,0.0807,0.0806,0.079,0.0785,0.0785,0.0753,0.0751,0.0763,0.076,0.075,0.0746,0.0724,0.0746,0.0748,0.0783,0.0717,0.0774,0.0776,0.0779,0.0885,0.0896,0.0906,0,0,0,0,0,0.0818,0.0821,0.0805,0.08,0.0777,0.0786,0.0788,0.0775,0.0766,0.0779,0.0774,0.0746,0.0762,0.0749,0.075,0.0786,0.0773,0.0776,0.0779,0.0881,0.0894,0.0905,0,0,0,0,0,0,0.0865,0.0817,0.0799,0.079,0.0791,0.078,0.0784,0.079,0.0799,0.0791,0.0773,0.077,0.0804,0.0779,0.0765,0.0808,0.076,0.0763,0.0837,0.0849,0.0859,0.0892,0.0718,0,0,0,0,0,0.087,0.0854,0.0826,0.0828,0.0809,0.0802,0.0809,0.0807,0.0807,0.0809,0.081,0.0805,0.0818,0.082,0.0823,0.0853,0.0834,0.0872,0.0882,0.0891,0.0917,0.092,0.0933,0.079,0.079,0.079,0,0,0.0899,0.0868,0.0865,0.0838,0.0819,0.083,0.0801,0.081,0.0852,0.0808,0.0857,0.0848,0.0835,0.0869,0.088,0.0851,0.0919,0.0895,0.0903,0.0925,0.0924,0.0938,0.0951,0.0792,0.0791,0.0791,0,0,0.0929,0.0898,0.0879,0.0875,0.0854,0.0865,0.0872,0.0869,0.0885,0.0934,0.0914,0.0941,0.0947,0.0959,0.0962,0.1034,0.0978,0.1012,0.1089,0.1091,0.1103,0.1114,0.11,0.1109,0.1011,0.1011,0.1011,0,0.0947,0.0931,0.089,0.0871,0.0887,0.0882,0.0899,0.0927,0.0955,0.0982,0.0959,0.101,0.1002,0.1062,0.1082,0.1063,0.1034,0.1046,0.1106,0.1116,0.1125,0.1108,0.1116,0.1017,0.1016,0.1015,0.1015,0,0.0964,0.0954,0.0944,0.0922,0.0945,0.0961,0.0983,0.1023,0.105,0.1081,0.1145,0.1146,0.1172,0.1173,0.1153,0.1214,0.1163,0.1125,0.108,0.1147,0.1124,0.113,0.1025,0.1023,0.1021,0.102,0,0,0.0967,0.0952,0.0952,0.0954,0.0973,0.0995,0.1067,0.113,0.1184,0.1224,0.1299,0.1337,0.133,0.1334,0.1313,0.1323,0.1364,0.1251,0.1248,0.1246,0.1346,0.1317,0.132,0.1318,0.132,0.1322,0.1302,0,0.098,0.0981,0.0988,0.1039,0.1035,0.1072,0.1143,0.1212,0.1269,0.1345,0.1375,0.1431,0.1392,0.1405,0.1417,0.1379,0.1386,0.1372,0.1275,0.1273,0.1246,0.133,0.126,0.1237,0.1308,0.1309,0.131,0,0.0977,0.0984,0.102,0.1075,0.1077,0.1131,0.1241,0.1306,0.1408,0.1443,0.1509,0.1529,0.1588,0.153,0.1522,0.1503,0.1444,0.1408,0.1404,0.135,0.1257,0.1182,0.1245,0.1157,0.1319,0.1318,0.1317,0,0.0988,0.1011,0.1056,0.107,0.113,0.1175,0.1233,0.1333,0.1395,0.1512,0.1566,0.1625,0.1658,0.1618,0.156,0.1532,0.1527,0.1472,0.1396,0.1391,0.1304,0.129,0.1284,0.147,0.1471,0.1471,0.1471,0,0.0988,0.1014,0.106,0.1075,0.1148,0.1186,0.1281,0.1346,0.1447,0.1531,0.1609,0.1684,0.1678,0.168,0.16,0.1529,0.1554,0.1443,0.1402,0.1339,0.1328,0.1223,0.1225,0.147,0.147,0.147,0.147,0,0.0971,0.0998,0.104,0.1112,0.114,0.1191,0.129,0.1358,0.1449,0.1566,0.1609,0.1729,0.1745,0.1717,0.1662,0.1582,0.148,0.1468,0.1395,0.1348,0.1203,0.1215,0.1254,0.1256,0.1398,0.1398,0.1397,0,0.0962,0.0978,0.1062,0.1097,0.1125,0.12,0.1256,0.135,0.1422,0.1587,0.1645,0.1733,0.1787,0.1723,0.1614,0.1499,0.1463,0.1357,0.1317,0.1223,0.1205,0.1235,0.1236,0.1231,0.123,0.1228,0.1227,0,0.0952,0.0983,0.1033,0.1096,0.1155,0.1227,0.1309,0.1364,0.1486,0.1577,0.1693,0.1753,0.1736,0.1632,0.1514,0.1426,0.1334,0.1324,0.1245,0.1118,0.1135,0.1103,0.1205,0.1214,0.1215,0.1216,0.1217,0.1217,0.0963,0.0992,0.1056,0.1118,0.1179,0.1255,0.1313,0.1399,0.1502,0.1631,0.1686,0.1742,0.1628,0.1479,0.137,0.1151,0.1248,0.1044,0.1076,0.1122,0.1114,0.1198,0.1152,0.1153,0.1153,0.1154,0.1155,0,0.0971,0.1008,0.1072,0.1151,0.1206,0.1242,0.1352,0.141,0.1513,0.1594,0.1666,0.1623,0.1427,0.1279,0.1019,0.089,0.089,0.0836,0.0838,0.086,0.0916,0.0893,0.0766,0.0766,0.0766,0.0767,0.0767,0.0767,0.0975,0.1032,0.1066,0.1159,0.1209,0.1283,0.1345,0.1429,0.1495,0.157,0.1583,0.1631,0.1588,0.1072,0.0771,0.0707,0.0692,0.0669,0.072,0.0692,0.0712,0.0731,0.0706,0.0542,0.0542,0.0619,0.0619,0.062]}],[{"header":{"parameterUnit":"m.s-1","parameterCategory":2,"la1":30.2991,"la2":30.254,"lo1":-89.0895,"lo2":-89.0444,"dy":0.0017,"dx":0.0017,"nx":28,"ny":28,"refTime":"2023-08-04T09:00:00:Z","depth":"2","parameterNumber":2,"parameterNumberName":"U-component_of_CURRENTS"},"data":[0,0,0,0,0,0,0,0,0,0,0,0,0,0,0,0,0,0,0,0,0,0,0,0,0,0,0,0,0,0,0,0,0,0,0,0,0,0,0,0,0,0,0,0,0,0,0,0,0,0,0,0,0,0,0,0,0,0,0.2728,0.2733,0,0.291,0.2909,0.2907,0.3004,0.3008,0.3012,0.3015,0.3023,0.302,0.3017,0,0,0,0,0,0,0,0,0,0,0,0,0,0.2686,0.2682,0.2727,0.2734,0.2739,0.291,0.2908,0.2907,0.3003,0.3008,0.3013,0.3017,0.3025,0.3021,0.3016,0,0,0,0,0,0,0,0,0,0,0,0,0,0.2731,0.268,0.2727,0.2838,0.2852,0.291,0.2908,0.2907,0.3002,0.3008,0.3014,0.3019,0.3026,0.3021,0.3016,0.2869,0,0,0.3,0.2998,0,0,0,0,0,0,0,0,0.2728,0.2727,0.2815,0.2831,0.2848,0.2975,0.29,0.2899,0.3001,0.2903,0.3016,0.3022,0.3013,0.3009,0.2976,0.2869,0.287,0.3,0.2997,0.2995,0.2993,0,0,0,0,0,0,0,0.2724,0.2722,0.2759,0.2822,0.2842,0.2959,0.2964,0.2898,0.2889,0.2912,0.2929,0.3012,0.3016,0.298,0.2977,0.287,0.3,0.2996,0.2992,0.299,0.2999,0.3002,0,0,0,0,0,0,0.2763,0.2716,0.2754,0.2769,0.2846,0.2956,0.2961,0.2895,0.2894,0.2913,0.3007,0.3016,0.2986,0.2983,0.2978,0.303,0.2995,0.299,0.2987,0.2996,0.3,0.3003,0,0,0,0,0,0,0.2758,0.2757,0.2747,0.2789,0.2802,0.2953,0.2878,0.2897,0.2907,0.2976,0.2983,0.301,0.2991,0.2985,0.2988,0.3023,0.2988,0.2983,0.2992,0.2997,0.3001,0.2989,0,0,0,0,0,0,0.2752,0.275,0.2699,0.2785,0.2802,0.2776,0.2878,0.2898,0.2967,0.298,0.2978,0.2984,0.2995,0.2995,0.2983,0.3016,0.2979,0.2988,0.2994,0.3,0.2985,0.2992,0.2999,0,0,0,0,0,0.2747,0.2712,0.269,0.2701,0.2724,0.2778,0.2788,0.2897,0.2962,0.2927,0.2986,0.2986,0.303,0.299,0.2976,0.3008,0.2985,0.2992,0.2999,0.2982,0.2991,0.2999,0,0,0,0,0,0,0.2642,0.2723,0.2703,0.2675,0.2711,0.281,0.2841,0.2891,0.2898,0.2915,0.2966,0.2972,0.303,0.3004,0.2962,0.3046,0.3028,0.3033,0.3021,0.3029,0.3036,0.2991,0.2975,0,0,0,0,0,0.2593,0.255,0.265,0.2582,0.2639,0.2713,0.2756,0.2797,0.2855,0.2864,0.292,0.2974,0.3031,0.3018,0.3062,0.3015,0.2996,0.3055,0.3062,0.3067,0.3031,0.308,0.3086,0.3027,0.3027,0.3027,0,0,0.255,0.2562,0.2552,0.2557,0.26,0.2642,0.274,0.2781,0.2814,0.2854,0.2922,0.2997,0.3042,0.3076,0.3094,0.3051,0.307,0.3077,0.308,0.304,0.3088,0.3092,0.3097,0.3032,0.3031,0.3031,0,0,0.2475,0.2431,0.2427,0.2477,0.2554,0.2569,0.259,0.2703,0.2765,0.2795,0.2916,0.2986,0.3029,0.3087,0.3115,0.3157,0.3144,0.3219,0.315,0.3199,0.3202,0.3205,0.3148,0.3145,0.3175,0.3175,0.3175,0,0.2431,0.2371,0.2428,0.2471,0.2538,0.2547,0.259,0.2616,0.2712,0.2781,0.2824,0.3006,0.3031,0.3105,0.315,0.3163,0.3169,0.3102,0.3201,0.3204,0.3206,0.3147,0.3145,0.3175,0.3175,0.3175,0.3175,0,0.2371,0.2369,0.2383,0.2391,0.2454,0.2453,0.2573,0.2607,0.2677,0.2738,0.2881,0.2942,0.3061,0.3098,0.3114,0.3186,0.3175,0.3237,0.3158,0.321,0.3146,0.3143,0.3175,0.3175,0.3175,0.3175,0,0,0.2212,0.2314,0.2326,0.2381,0.2418,0.2479,0.2523,0.2589,0.2649,0.2739,0.2857,0.2956,0.3035,0.3074,0.3147,0.3135,0.314,0.3174,0.3177,0.3075,0.3187,0.2943,0.2915,0.3243,0.3243,0.3244,0.3116,0,0.2138,0.2191,0.2258,0.2319,0.2401,0.2475,0.2528,0.2605,0.2654,0.2756,0.285,0.2965,0.3017,0.3087,0.3104,0.3199,0.3142,0.3164,0.3187,0.3184,0.2929,0.2908,0.2755,0.261,0.3113,0.3113,0.3112,0,0.2095,0.2141,0.2197,0.2368,0.2419,0.2443,0.2555,0.2613,0.2716,0.278,0.288,0.2973,0.3055,0.307,0.3154,0.3188,0.3161,0.3156,0.3155,0.2919,0.2935,0.2655,0.2586,0.3108,0.3108,0.3108,0.3109,0,0.1996,0.2141,0.2157,0.2214,0.2364,0.245,0.252,0.2632,0.2699,0.2804,0.2829,0.2972,0.302,0.3102,0.3099,0.3172,0.3096,0.3218,0.2926,0.2907,0.2765,0.273,0.317,0.317,0.317,0.317,0.3171,0,0.1878,0.1967,0.2143,0.2161,0.2279,0.2457,0.2528,0.2621,0.2716,0.2764,0.2865,0.2882,0.3029,0.3021,0.3072,0.2948,0.309,0.2863,0.2856,0.2751,0.2718,0.3164,0.3165,0.3166,0.3167,0.3168,0.3168,0,0.1808,0.1849,0.1993,0.2171,0.2228,0.2374,0.2538,0.2596,0.267,0.2733,0.2773,0.2813,0.2801,0.2825,0.2853,0.2827,0.2792,0.2669,0.2456,0.2423,0.2583,0.2586,0.2427,0.2417,0.2409,0.2402,0.2396,0,0.179,0.1824,0.2005,0.2067,0.215,0.2333,0.2411,0.256,0.2602,0.2681,0.2697,0.2652,0.2565,0.2434,0.2369,0.2291,0.2464,0.2073,0.2171,0.2495,0.2507,0.2523,0.2537,0.1983,0.1974,0.1967,0.1962,0,0.179,0.1829,0.1872,0.1995,0.2112,0.2263,0.2397,0.2396,0.2547,0.2557,0.2536,0.2465,0.2245,0.2046,0.182,0.1799,0.2115,0.1917,0.2347,0.2167,0.206,0.2077,0.2109,0.1898,0.1905,0.1909,0.1913,0.1915,0.1793,0.1823,0.1801,0.1954,0.2103,0.2195,0.2224,0.2274,0.2299,0.226,0.23,0.2099,0.1943,0.151,0.1435,0.1399,0.1546,0.1586,0.1618,0.1655,0.1598,0.148,0.1194,0.1196,0.1198,0.1199,0.1201,0,0.1716,0.1695,0.1772,0.1888,0.2034,0.2147,0.2204,0.215,0.209,0.202,0.193,0.1577,0.1316,0.1237,0.1062,0.0989,0.1089,0.1004,0.1198,0.1255,0.1307,0.1246,0.0742,0.0741,0.0741,0.074,0,0,0.1626,0.1553,0.1572,0.1754,0.1917,0.2011,0.2027,0.1893,0.1784,0.1539,0.139,0.1281,0.1194,0.0981,0.0901,0.084,0.1073,0.0798,0.1153,0.1441,0.1495,0.1601,0.156,0,0,0,0,0]},{"header":{"parameterUnit":"m.s-1","parameterCategory":2,"la1":30.2991,"la2":30.254,"lo1":-89.0895,"lo2":-89.0444,"dy":0.0017,"dx":0.0017,"nx":28,"ny":28,"refTime":"2023-08-04T09:00:00:Z","depth":"2","parameterNumber":3,"parameterNumberName":"V-component_of_CURRENTS"},"data":[0,0,0,0,0,0,0,0,0,0,0,0,0,0,0,0,0,0,0,0,0,0,0,0,0,0,0,0,0,0,0,0,0,0,0,0,0,0,0,0,0,0,0,0,0,0,0,0,0,0,0,0,0,0,0,0,0,0,0.0151,0.0152,0,0.0151,0.015,0.015,0.0177,0.0178,0.018,0.0181,0.0188,0.0187,0.0186,0,0,0,0,0,0,0,0,0,0,0,0,0,0.0282,0.0278,0.0151,0.0152,0.0153,0.0151,0.015,0.0149,0.0177,0.0179,0.018,0.0182,0.0189,0.0187,0.0186,0,0,0,0,0,0,0,0,0,0,0,0,0,0.0239,0.0277,0.0151,0.0173,0.0175,0.0151,0.015,0.0149,0.0176,0.0179,0.0181,0.0183,0.0189,0.0187,0.0185,0.0128,0,0,0.018,0.0179,0,0,0,0,0,0,0,0,0.0241,0.0233,0.0169,0.0171,0.0174,0.0174,0.0199,0.0146,0.0176,0.0167,0.0181,0.0184,0.0188,0.0186,0.0169,0.0129,0.0129,0.018,0.0178,0.0178,0.0177,0,0,0,0,0,0,0,0.0244,0.0234,0.0142,0.0169,0.0173,0.022,0.0214,0.0189,0.0158,0.0168,0.0172,0.0185,0.0189,0.017,0.0169,0.0129,0.018,0.0178,0.0177,0.0176,0.0223,0.0225,0,0,0,0,0,0,0.0252,0.0235,0.0143,0.0143,0.0224,0.0215,0.0209,0.0165,0.0158,0.0162,0.0183,0.0186,0.0172,0.0171,0.017,0.0252,0.0178,0.0176,0.0175,0.022,0.0223,0.0226,0,0,0,0,0,0,0.0254,0.0241,0.0143,0.0201,0.0193,0.0211,0.0161,0.0164,0.0171,0.0171,0.0174,0.0192,0.0174,0.0172,0.0203,0.0247,0.0175,0.0173,0.0218,0.0221,0.0225,0.0321,0,0,0,0,0,0,0.0256,0.024,0.0207,0.0199,0.019,0.0136,0.016,0.0162,0.0178,0.0183,0.0179,0.0181,0.0176,0.0206,0.0201,0.0244,0.0172,0.0215,0.0219,0.0223,0.0315,0.0327,0.0338,0,0,0,0,0,0.026,0.0226,0.0203,0.0194,0.0141,0.0136,0.0134,0.0153,0.0177,0.0168,0.0205,0.0182,0.0231,0.0206,0.02,0.0243,0.0213,0.0218,0.0223,0.031,0.0325,0.0338,0,0,0,0,0,0,0.0246,0.0225,0.0201,0.0152,0.0144,0.0145,0.0152,0.0158,0.0173,0.019,0.0197,0.02,0.0256,0.0228,0.02,0.0273,0.0223,0.0227,0.0291,0.0305,0.0316,0.0279,0.017,0,0,0,0,0,0.0227,0.016,0.0181,0.0102,0.0143,0.0143,0.0145,0.015,0.0169,0.0177,0.0196,0.0223,0.0263,0.0269,0.0287,0.0297,0.0247,0.0328,0.0339,0.0349,0.0317,0.0309,0.0316,0.0243,0.0243,0.0243,0,0,0.0193,0.0155,0.0122,0.0091,0.01,0.0135,0.0149,0.0154,0.0171,0.0173,0.0223,0.0262,0.028,0.0329,0.0348,0.0312,0.0346,0.0356,0.0364,0.0326,0.0315,0.0322,0.0328,0.0247,0.0246,0.0246,0,0,0.0129,0.008,0.0067,0.0095,0.0114,0.0102,0.0116,0.0157,0.0186,0.0216,0.0266,0.0324,0.0349,0.0389,0.0409,0.048,0.042,0.0505,0.0514,0.0509,0.0514,0.0518,0.0464,0.0462,0.0496,0.0496,0.0497,0,0.0129,0.0059,0.0058,0.0104,0.014,0.0104,0.0163,0.0162,0.0191,0.0247,0.0244,0.0367,0.0373,0.0466,0.0497,0.0503,0.0473,0.0463,0.0522,0.0524,0.0526,0.0469,0.0466,0.0502,0.0501,0.05,0.05,0,0.0066,0.0078,0.0087,0.0101,0.0142,0.0148,0.0212,0.0245,0.0267,0.0281,0.0394,0.0421,0.0512,0.0523,0.052,0.0575,0.0541,0.0549,0.0479,0.0538,0.0476,0.047,0.0509,0.0507,0.0506,0.0504,0,0,0.0014,0.0038,0.0071,0.0131,0.0157,0.0204,0.0253,0.0313,0.0379,0.0399,0.0506,0.0559,0.0602,0.0625,0.0659,0.061,0.0597,0.0575,0.0573,0.0506,0.055,0.0525,0.0515,0.0625,0.0624,0.0624,0.05,0,0.0002,0.0051,0.0074,0.017,0.0254,0.0306,0.0364,0.0423,0.0445,0.0527,0.0568,0.0656,0.0635,0.0708,0.0674,0.0657,0.0587,0.0626,0.0513,0.0507,0.0467,0.051,0.0484,0.0372,0.0494,0.0493,0.0493,0,0.0005,0.0046,0.0119,0.028,0.034,0.0379,0.0521,0.0575,0.0656,0.0694,0.077,0.0801,0.0841,0.0774,0.0722,0.0759,0.0644,0.0557,0.0552,0.0479,0.0472,0.0334,0.0356,0.0482,0.0483,0.0484,0.0484,0,-0.0019,0.013,0.0157,0.021,0.0348,0.0453,0.0533,0.064,0.0722,0.081,0.0855,0.0913,0.0927,0.0865,0.0737,0.0747,0.0583,0.0602,0.0438,0.0434,0.0357,0.0348,0.0465,0.0465,0.0465,0.0466,0.0466,0,-0.0049,0.0059,0.0171,0.0209,0.0368,0.0509,0.065,0.0736,0.085,0.0943,0.0967,0.1005,0.0929,0.086,0.0761,0.0599,0.0632,0.0421,0.0407,0.0393,0.0388,0.0441,0.044,0.0461,0.0462,0.0463,0.0464,0,-0.0044,-0.0033,0.0099,0.0269,0.0342,0.0499,0.0723,0.0834,0.0916,0.104,0.1082,0.1048,0.0962,0.0847,0.0668,0.0595,0.0468,0.0358,0.032,0.0304,0.0308,0.0314,0.023,0.0229,0.0227,0.0226,0.0225,0,-0.0052,-0.0023,0.0141,0.0226,0.0314,0.0537,0.0676,0.0844,0.0949,0.1071,0.1125,0.1041,0.0981,0.0722,0.0544,0.0364,0.0337,0.0203,0.0221,0.0293,0.0287,0.0295,0.0303,0.0147,0.0145,0.0144,0.0143,0,-0.0013,0.0005,0.0071,0.0231,0.0392,0.0607,0.0819,0.0889,0.109,0.1166,0.1219,0.1178,0.0898,0.0662,0.0365,0.0261,0.0278,0.0171,0.0262,0.0228,0.0209,0.0206,0.0217,0.0131,0.0132,0.0133,0.0134,0.0134,0.0025,0.0067,0.0094,0.0281,0.048,0.0695,0.0839,0.0989,0.1148,0.1263,0.1227,0.1132,0.0839,0.0418,0.0263,0.0121,0.0122,0.0074,0.008,0.0087,0.0117,0.01,0.0002,0.0002,0.0003,0.0003,0.0003,0,0.0073,0.0072,0.0174,0.038,0.0611,0.0734,0.0959,0.1059,0.121,0.1225,0.1241,0.0929,0.0646,0.0393,0.0152,0.0013,0.0028,-0.0011,0.0026,0.0035,0.0045,0.0076,-0.0052,-0.0052,-0.0052,-0.0051,0,0,0.0067,0.0114,0.0143,0.0462,0.0664,0.0966,0.1101,0.1166,0.1184,0.1141,0.1061,0.0911,0.0604,0.0412,0.02,0.0094,0.0123,0.0082,0.0128,0.0204,0.0217,0.0076,0.0132,0,0,0,0,0]}],[{"header":{"parameterUnit":"m.s-1","parameterCategory":2,"la1":30.2991,"la2":30.254,"lo1":-89.0895,"lo2":-89.0444,"dy":0.0017,"dx":0.0017,"nx":28,"ny":28,"refTime":"2023-08-04T09:00:00:Z","depth":"4","parameterNumber":2,"parameterNumberName":"U-component_of_CURRENTS"},"data":[0,0,0,0,0,0,0,0,0,0,0,0,0,0,0,0,0,0,0,0,0,0,0,0,0,0,0,0,0,0,0,0,0,0,0,0,0,0,0,0,0,0,0,0,0,0,0,0,0,0,0,0,0,0,0,0,0,0,-0.0458,-0.0458,0,-0.0453,-0.0453,-0.0453,-0.0462,-0.0462,-0.0463,-0.0463,-0.0259,-0.0254,-0.0248,0,0,0,0,0,0,0,0,0,0,0,0,0,-0.0436,-0.0436,-0.0458,-0.0458,-0.0458,-0.0453,-0.0453,-0.0453,-0.0462,-0.0462,-0.0463,-0.0463,-0.0261,-0.0254,-0.0248,0,0,0,0,0,0,0,0,0,0,0,0,0,-0.0441,-0.0436,-0.0458,-0.0461,-0.0461,-0.0453,-0.0453,-0.0453,-0.0462,-0.0462,-0.0463,-0.0463,-0.0263,-0.0255,-0.0247,-0.0189,0,0,-0.0221,-0.0217,0,0,0,0,0,0,0,0,-0.044,-0.0442,-0.0461,-0.0461,-0.0461,-0.0458,-0.0371,-0.0355,-0.0462,-0.0463,-0.0463,-0.0463,-0.0306,-0.0294,-0.0297,-0.0179,-0.017,-0.022,-0.0215,-0.0212,-0.0209,0,0,0,0,0,0,0,-0.044,-0.0441,-0.0457,-0.046,-0.0461,-0.0449,-0.045,-0.0369,-0.038,-0.0463,-0.0463,-0.0461,-0.0305,-0.0305,-0.0292,-0.0167,-0.022,-0.0213,-0.0208,-0.0205,-0.0052,-0.0053,0,0,0,0,0,0,-0.0441,-0.0441,-0.0457,-0.0457,-0.045,-0.0449,-0.0451,-0.0459,-0.0385,-0.0375,-0.0461,-0.0461,-0.032,-0.0302,-0.0284,-0.0231,-0.0212,-0.0204,-0.0199,-0.0051,-0.0052,-0.0053,0,0,0,0,0,0,-0.044,-0.0442,-0.0457,-0.0448,-0.0449,-0.0449,-0.0459,-0.0459,-0.0441,-0.0386,-0.0372,-0.044,-0.0319,-0.0296,-0.0188,-0.0222,-0.02,-0.0192,-0.0049,-0.0051,-0.0052,-0.011,0,0,0,0,0,0,-0.044,-0.0443,-0.0464,-0.0448,-0.0449,-0.0448,-0.0458,-0.0459,-0.044,-0.044,-0.0363,-0.0347,-0.0318,-0.0201,-0.018,-0.021,-0.0186,-0.0048,-0.005,-0.0052,-0.0106,-0.0113,-0.0118,0,0,0,0,0,-0.0439,-0.0452,-0.0465,-0.0467,-0.0474,-0.0447,-0.0446,-0.0448,-0.0438,-0.0432,-0.0366,-0.0348,-0.0201,-0.0192,-0.0167,-0.0197,-0.0047,-0.005,-0.0052,-0.0104,-0.0112,-0.0118,0,0,0,0,0,0,-0.0441,-0.0454,-0.0468,-0.0483,-0.0468,-0.0448,-0.0456,-0.0432,-0.038,-0.0368,-0.031,-0.0288,-0.0227,-0.0188,-0.018,-0.0166,-0.0141,-0.0138,-0.0189,-0.0196,-0.0202,-0.0163,-0.0179,0,0,0,0,0,-0.0456,-0.0475,-0.0468,-0.0477,-0.048,-0.0461,-0.0454,-0.0435,-0.0385,-0.0365,-0.0311,-0.0261,-0.0223,-0.0184,-0.014,-0.0084,-0.0063,-0.0106,-0.0112,-0.0117,-0.0073,-0.0083,-0.0086,-0.006,-0.006,-0.006,0,0,-0.0451,-0.0467,-0.0474,-0.0481,-0.0481,-0.0461,-0.0458,-0.0431,-0.0405,-0.0342,-0.0289,-0.0258,-0.0209,-0.0179,-0.0153,-0.0142,-0.0122,-0.012,-0.0124,-0.0076,-0.0086,-0.0088,-0.009,-0.0062,-0.0061,-0.0061,0,0,-0.0449,-0.0476,-0.0495,-0.0483,-0.0476,-0.0454,-0.0436,-0.0403,-0.0395,-0.0326,-0.0304,-0.0275,-0.0193,-0.0191,-0.0173,-0.0172,-0.0151,-0.0183,-0.0172,-0.0186,-0.0187,-0.0188,-0.0199,-0.02,-0.019,-0.019,-0.019,0,-0.0441,-0.0473,-0.0487,-0.0492,-0.0474,-0.0443,-0.0419,-0.0404,-0.0331,-0.0306,-0.0314,-0.0235,-0.0212,-0.0176,-0.0198,-0.0187,-0.0174,-0.0151,-0.0192,-0.0192,-0.0192,-0.0203,-0.0203,-0.0193,-0.0193,-0.0192,-0.0192,0,-0.0443,-0.047,-0.0473,-0.0475,-0.045,-0.0421,-0.0391,-0.0355,-0.0332,-0.031,-0.027,-0.0253,-0.0197,-0.0236,-0.0204,-0.0204,-0.0191,-0.0199,-0.0172,-0.0198,-0.0208,-0.0208,-0.0197,-0.0196,-0.0195,-0.0194,0,0,-0.0419,-0.0466,-0.047,-0.0475,-0.0433,-0.0403,-0.0358,-0.0309,-0.0263,-0.0254,-0.0209,-0.0213,-0.0195,-0.0173,-0.0173,-0.0196,-0.0225,-0.0186,-0.0185,-0.019,-0.0236,-0.0198,-0.0194,-0.0233,-0.0233,-0.0232,-0.0256,0,-0.0417,-0.0436,-0.0443,-0.0417,-0.0418,-0.0366,-0.0322,-0.0263,-0.0225,-0.0174,-0.0191,-0.0146,-0.0179,-0.0152,-0.0181,-0.0203,-0.0217,-0.0215,-0.0211,-0.021,-0.0169,-0.019,-0.023,-0.0256,-0.0255,-0.0255,-0.0255,0,-0.0417,-0.0439,-0.0432,-0.0407,-0.0397,-0.0351,-0.0251,-0.0203,-0.0128,-0.0102,-0.0064,-0.0048,-0.0058,-0.0091,-0.0145,-0.0134,-0.0161,-0.0202,-0.0204,-0.013,-0.0169,-0.0215,-0.0254,-0.0254,-0.0254,-0.0254,-0.0254,0,-0.0401,-0.0419,-0.0416,-0.0405,-0.0368,-0.0329,-0.0268,-0.0175,-0.0128,-0.0033,0.0011,0.0012,0.002,-0.0032,-0.0115,-0.0111,-0.0187,-0.0204,-0.0194,-0.0194,-0.0195,-0.0193,-0.0213,-0.0213,-0.0213,-0.0213,-0.0213,0,-0.0383,-0.039,-0.0415,-0.0409,-0.0372,-0.0319,-0.0235,-0.0167,-0.0068,-0.0016,0.0055,0.0064,0.0041,-0.0005,-0.0085,-0.0146,-0.0169,-0.0167,-0.0187,-0.0225,-0.0226,-0.0197,-0.0195,-0.0214,-0.0213,-0.0213,-0.0213,0,-0.0366,-0.0389,-0.0403,-0.0387,-0.0374,-0.0332,-0.0229,-0.0165,-0.0058,0.0017,0.0052,0.0108,0.0064,0.0019,-0.007,-0.0097,-0.0177,-0.0186,-0.0222,-0.0248,-0.0175,-0.0176,-0.015,-0.0149,-0.0147,-0.0146,-0.0146,0,-0.0369,-0.0378,-0.0397,-0.04,-0.0395,-0.0334,-0.0284,-0.0172,-0.0118,-0.0004,0.0006,0.0054,0.0068,-0.0013,-0.0081,-0.0162,-0.017,-0.0175,-0.0152,-0.0141,-0.0164,-0.0166,-0.0169,-0.0144,-0.0143,-0.0143,-0.0143,0,-0.0376,-0.0386,-0.0391,-0.0403,-0.0382,-0.0343,-0.0276,-0.0236,-0.0117,-0.0047,0.0015,0.0053,0.0036,-0.0012,-0.003,-0.0125,-0.0157,-0.0163,-0.0165,-0.0143,-0.0133,-0.0158,-0.0161,-0.0139,-0.0139,-0.014,-0.014,0,-0.0388,-0.039,-0.0401,-0.0393,-0.0383,-0.0346,-0.0305,-0.0236,-0.0159,-0.003,-0.006,-0.0015,0.0008,-0.0,-0.0092,-0.0093,-0.0084,-0.0071,-0.0078,-0.0083,-0.005,-0.0027,0.0003,0,0,0,0,0,-0.0397,-0.038,-0.0384,-0.0371,-0.0357,-0.0347,-0.0301,-0.0259,-0.0186,-0.0125,-0.0057,-0.0071,-0.004,-0.0065,-0.0054,-0.0107,-0.0125,-0.0096,-0.0124,-0.0116,-0.0121,-0.0089,0,0,0,0,0,0,-0.04,-0.0401,-0.0383,-0.0354,-0.0341,-0.0311,-0.0287,-0.024,-0.0202,-0.0131,-0.0135,-0.0058,-0.0075,-0.0043,-0.0052,-0.0055,-0.0066,-0.0082,-0.0081,-0.0114,-0.0118,-0.0122,-0.009,0,0,0,0,0]},{"header":{"parameterUnit":"m.s-1","parameterCategory":2,"la1":30.2991,"la2":30.254,"lo1":-89.0895,"lo2":-89.0444,"dy":0.0017,"dx":0.0017,"nx":28,"ny":28,"refTime":"2023-08-04T09:00:00:Z","depth":"4","parameterNumber":3,"parameterNumberName":"V-component_of_CURRENTS"},"data":[0,0,0,0,0,0,0,0,0,0,0,0,0,0,0,0,0,0,0,0,0,0,0,0,0,0,0,0,0,0,0,0,0,0,0,0,0,0,0,0,0,0,0,0,0,0,0,0,0,0,0,0,0,0,0,0,0,0,0.0204,0.0204,0,0.0094,0.0092,0.009,-0.0058,-0.006,-0.0061,-0.0062,-0.0216,-0.0218,-0.0221,0,0,0,0,0,0,0,0,0,0,0,0,0,0.0233,0.0233,0.0204,0.0204,0.0203,0.0094,0.0092,0.0089,-0.0058,-0.006,-0.0061,-0.0063,-0.0215,-0.0218,-0.0221,0,0,0,0,0,0,0,0,0,0,0,0,0,0.0171,0.0233,0.0204,0.0125,0.0118,0.0095,0.0092,0.0088,-0.0058,-0.006,-0.0062,-0.0064,-0.0214,-0.0218,-0.0222,-0.0205,0,0,-0.0234,-0.0236,0,0,0,0,0,0,0,0,0.0175,0.0169,0.0137,0.0131,0.0123,0.004,0.0047,-0.0008,-0.0057,-0.0003,-0.0062,-0.0065,-0.0125,-0.0137,-0.0169,-0.0213,-0.0219,-0.0235,-0.0237,-0.0239,-0.024,0,0,0,0,0,0,0,0.0179,0.0172,0.0148,0.0137,0.0129,0.0078,0.0066,0.0034,-0.0061,-0.0008,-0.0016,-0.0009,-0.0131,-0.0164,-0.0173,-0.0221,-0.0235,-0.0238,-0.0241,-0.0243,-0.04,-0.0401,0,0,0,0,0,0,0.0222,0.0177,0.0152,0.0146,0.0157,0.0081,0.0067,0.0059,-0.006,-0.0076,-0.0007,-0.0015,-0.0156,-0.0168,-0.0179,-0.0248,-0.0239,-0.0243,-0.0245,-0.0398,-0.04,-0.0402,0,0,0,0,0,0,0.0222,0.022,0.0157,0.0169,0.0159,0.0084,0.0076,0.0058,-0.0016,-0.0056,-0.0077,-0.0066,-0.0158,-0.0173,-0.0234,-0.0252,-0.0245,-0.0249,-0.0396,-0.0399,-0.0401,-0.0333,0,0,0,0,0,0,0.0223,0.022,0.0212,0.0172,0.016,0.0146,0.0078,0.0058,0.0001,-0.0013,-0.0112,-0.0127,-0.0161,-0.0227,-0.0238,-0.0257,-0.0252,-0.0394,-0.0397,-0.04,-0.0333,-0.0333,-0.0332,0,0,0,0,0,0.0224,0.0226,0.0212,0.0209,0.0157,0.0148,0.0136,0.0068,-0.0,-0.0015,-0.0097,-0.0126,-0.0257,-0.0231,-0.0244,-0.0264,-0.0393,-0.0396,-0.04,-0.0333,-0.0333,-0.0333,0,0,0,0,0,0,0.0217,0.0211,0.0195,0.0188,0.0176,0.0127,0.0111,0.0052,-0.0028,-0.0058,-0.0131,-0.0149,-0.0217,-0.0252,-0.0223,-0.0326,-0.0336,-0.0342,-0.0281,-0.0281,-0.0281,-0.0265,-0.0255,0,0,0,0,0,0.0225,0.023,0.0216,0.0212,0.021,0.015,0.0128,0.0084,0.0025,-0.0018,-0.0076,-0.0159,-0.0235,-0.0267,-0.0322,-0.036,-0.037,-0.0391,-0.0391,-0.039,-0.039,-0.0435,-0.0438,-0.0415,-0.0414,-0.0414,0,0,0.0223,0.0223,0.0222,0.0214,0.0191,0.0188,0.0126,0.01,0.0073,-0.0015,-0.0079,-0.0154,-0.0248,-0.0301,-0.0335,-0.0334,-0.0393,-0.0395,-0.0393,-0.0393,-0.0439,-0.0441,-0.0443,-0.0417,-0.0417,-0.0416,0,0,0.0234,0.0223,0.0232,0.0231,0.0221,0.0199,0.0187,0.0139,0.009,0.0048,-0.0054,-0.0139,-0.0214,-0.0296,-0.035,-0.0384,-0.0395,-0.0412,-0.0386,-0.043,-0.0431,-0.0433,-0.0392,-0.039,-0.0405,-0.0405,-0.0405,0,0.0236,0.0234,0.0232,0.0242,0.0237,0.0202,0.0196,0.0163,0.0095,0.0049,0.0042,-0.014,-0.0213,-0.0331,-0.035,-0.0381,-0.0377,-0.037,-0.0425,-0.0427,-0.043,-0.0388,-0.0387,-0.0402,-0.0402,-0.0403,-0.0403,0,0.0245,0.0249,0.0258,0.0263,0.0258,0.0256,0.0234,0.0201,0.0149,0.0104,-0.0001,-0.0089,-0.0211,-0.0247,-0.0307,-0.0391,-0.0368,-0.0417,-0.041,-0.0427,-0.0382,-0.0382,-0.0398,-0.0399,-0.04,-0.04,0,0,0.0243,0.0262,0.0266,0.0267,0.0263,0.0261,0.0233,0.0189,0.0134,0.0097,0.0021,-0.0106,-0.0172,-0.0241,-0.0332,-0.0363,-0.0366,-0.039,-0.0393,-0.0319,-0.0393,-0.0377,-0.0375,-0.0419,-0.042,-0.0421,-0.0332,0,0.0248,0.0274,0.0274,0.0284,0.0287,0.026,0.0238,0.0189,0.014,0.0078,-0.0019,-0.0116,-0.0165,-0.024,-0.0279,-0.0372,-0.0373,-0.0381,-0.0415,-0.0415,-0.0377,-0.0379,-0.0425,-0.0332,-0.0332,-0.0332,-0.0332,0,0.0244,0.0264,0.0282,0.0278,0.0275,0.0275,0.0213,0.0183,0.0095,0.0049,-0.0044,-0.0117,-0.0214,-0.0239,-0.0327,-0.0327,-0.0355,-0.0381,-0.0379,-0.0395,-0.0402,-0.0333,-0.0333,-0.0333,-0.0332,-0.0332,-0.0332,0,0.0231,0.0259,0.0273,0.0279,0.028,0.0259,0.0234,0.016,0.0118,0.0014,-0.0021,-0.013,-0.0194,-0.0246,-0.0298,-0.0326,-0.0334,-0.0391,-0.0376,-0.0371,-0.0437,-0.0438,-0.0427,-0.0427,-0.0427,-0.0427,-0.0428,0,0.0224,0.0237,0.0273,0.0285,0.0279,0.0258,0.0212,0.0167,0.0092,0.0037,-0.0049,-0.0113,-0.0203,-0.0224,-0.0267,-0.0294,-0.0311,-0.036,-0.0365,-0.0403,-0.0402,-0.0432,-0.0434,-0.0424,-0.0425,-0.0425,-0.0426,0,0.0202,0.0234,0.0258,0.0275,0.028,0.0264,0.0225,0.018,0.0114,0.0044,0.0012,-0.009,-0.0152,-0.017,-0.0243,-0.0258,-0.0287,-0.0286,-0.024,-0.0246,-0.0291,-0.0291,-0.0281,-0.028,-0.0279,-0.0279,-0.0278,0,0.0185,0.0202,0.026,0.0278,0.0291,0.0269,0.0246,0.0187,0.0138,0.0044,0.0011,-0.0058,-0.0126,-0.0159,-0.0214,-0.0223,-0.0252,-0.0211,-0.0336,-0.0278,-0.0285,-0.0286,-0.0286,-0.0277,-0.0277,-0.0276,-0.0276,0,0.015,0.0189,0.0216,0.0261,0.0269,0.0262,0.0225,0.0188,0.0105,0.0091,-0.001,-0.007,-0.0122,-0.019,-0.0158,-0.0192,-0.0219,-0.0205,-0.0209,-0.0327,-0.0273,-0.0281,-0.0282,-0.0274,-0.0274,-0.0274,-0.0274,0,0.0124,0.0141,0.019,0.0223,0.0244,0.0223,0.0205,0.0146,0.0099,0.0016,-0.0015,-0.0094,-0.0128,-0.0173,-0.0168,-0.0167,-0.0224,-0.0231,-0.0235,-0.0238,-0.0277,-0.0206,-0.0183,0,0,0,0,0,0.0089,0.011,0.0139,0.0162,0.0183,0.0202,0.0179,0.015,0.0097,0.0037,0.0009,-0.005,-0.0116,-0.0166,-0.0172,-0.0188,-0.0222,-0.0194,-0.0231,-0.0259,-0.0262,-0.0318,0,0,0,0,0,0,0.007,0.0096,0.0122,0.0105,0.0117,0.0115,0.0106,0.0076,0.0032,-0.0003,-0.0043,-0.0034,-0.01,-0.0102,-0.0167,-0.0172,-0.0194,-0.0213,-0.0213,-0.0257,-0.026,-0.0262,-0.0321,0,0,0,0,0]}]]